Weather in Zaterechny

Russia / Stavropol Krai     44°47′39″N   45°12′39″E
temp.,
°C
wind,
m/s
gust,
m/s
humid.,
%
clouds,
%
prec.,
mm/h
press.,
hPa
HPBL,
m
12 april, mon
mon1200:00+11e336886 0.0 101636
03:00+9e227163 0.0 101614
06:00+10nw1173100 0.1 101714
09:00+14ese0156100 0.1 1019478
12:00+16se1250100 0.0 1019793
15:00+16se2351100 0.0 1020576
18:00+15ese3565100 0.0 1021179
21:00+12e3471100 0.0 102162
13 april, tue
tue1300:00+11e347490 0.0 1022101
03:00+10e228028 0.0 102225
06:00+8e369116 0.0 1022141
09:00+15ese61061100 0.0 1022625
12:00+21ese8113679 0.0 10201846
15:00+20e7834100 0.0 10191251
18:00+16e81248100 0.0 1019345
21:00+14e61244100 0.0 1019387
14 april, wed
wed1400:00+12e3858100 0.1 1018287
03:00+10ese3372100 0.2 101627
06:00+11wsw1173100 0.1 101617
09:00+14nw2254100 0.2 1016399
12:00+17s1144100 0.0 10151013
15:00+15sw1266100 1.4 1015449
18:00+14se2270100 0.0 101676
21:00+13w3478100 0.2 1016139
15 april, thu
thu1500:00+12wsw3483100 0.1 1015187
03:00+12w3684100 0.1 1015188
06:00+12wnw4883100 0.1 1016331
09:00+15wnw6764100 0.1 1016806
12:00+19nw6650100 0.0 10151291
15:00+20nw554545 0.0 10151340
18:00+18nw35533 0.0 101588
21:00+15nw45605 0.0 101657
16 april, fri
fri1600:00+13nw4566100 0.0 101567
03:00+12nw33695 0.0 101629
06:00+12nw33723 0.0 101736
09:00+18nnw235021 0.0 1017538
12:00+21n33360 0.0 10171529
15:00+23ne44315 0.0 10151876
18:00+21ene34405 0.0 101546
21:00+17ene334198 0.0 101630